Location: Henham
(51.9333°N, 0.2500°E)
Time: 21:27:13
(UTC+00:00)

Cosmos 1825 - Pass Details

Date: 23 October 2019
Orbit: 503 x 509 km, 82.5° (Epoch: 18 November)

Event Time Altitude Azimuth Distance (km) Brightness Sun altitude
Rises 18:22:32 0° 2° (N) 2,618 5.8 -15.1°
Reaches altitude 10° 18:25:22 10° 25° (NNE) 1,727 4.6 -15.5°
Enters shadow 18:25:51 12° 32° (NNE) 1,615 4.4 -15.6°
